• In Russia
  • List of Countries
  • For 7 days
  • Water Temperature
  • Satellite Maps
  • Weather Map
  • Weather Widgets
  • user-avatar
    Login

    Hourly Weather La Massana

    Today, 11 December, Monday

    Time Temperature Precipitation Wind Pressure Humidity
    00:00 +1°C° 0 mm 2 mps 593 mmHg 91%
    01:00 0°C° 0.6 mm 3 mps 592 mmHg 91%
    02:00 -1°C° 0.6 mm 4 mps 592 mmHg 91%
    03:00 -1°C° 0.6 mm 5 mps 591 mmHg 91%
    04:00 -1°C° 0.9 mm 4 mps 591 mmHg 91%
    05:00 -1°C° 0.9 mm 4 mps 591 mmHg 91%
    06:00 -1°C° 0.9 mm 4 mps 590 mmHg 91%
    07:00 -2°C° 1 mm 4 mps 591 mmHg 92%
    08:00 -2°C° 1 mm 4 mps 591 mmHg 94%
    09:00 -2°C° 1 mm 4 mps 592 mmHg 95%
    10:00 -2°C° 0.8 mm 4 mps 592 mmHg 93%
    11:00 -1°C° 0.8 mm 3 mps 592 mmHg 91%
    12:00 -1°C° 0.8 mm 3 mps 593 mmHg 89%
    13:00 -2°C° 0.4 mm 3 mps 593 mmHg 87%
    14:00 -2°C° 0.4 mm 2 mps 594 mmHg 86%
    15:00 -2°C° 0.4 mm 2 mps 594 mmHg 85%
    16:00 -3°C° 0.1 mm 2 mps 594 mmHg 87%
    17:00 -2°C° 0.1 mm 1 mps 595 mmHg 89%
    18:00 -3°C° 0.1 mm 1 mps 595 mmHg 91%
    19:00 -3°C° 0.1 mm 1 mps 596 mmHg 91%
    20:00 -3°C° 0.1 mm 1 mps 596 mmHg 91%
    21:00 -3°C° 0.1 mm 1 mps 597 mmHg 91%
    22:00 -4°C° 0 mm 1 mps 598 mmHg 90%
    23:00 -4°C° 0 mm 1 mps 598 mmHg 90%

    Tomorrow, 12 December, Tuesday

    Time Temperature Precipitation Wind Pressure Humidity
    00:00 -4°C° 0 mm 1 mps 599 mmHg 90%
    01:00 -4°C° 0 mm 1 mps 599 mmHg 90%
    02:00 -6°C° 0 mm 1 mps 600 mmHg 89%
    03:00 -6°C° 0 mm 1 mps 600 mmHg 89%
    04:00 -6°C° 0.1 mm 1 mps 601 mmHg 89%
    05:00 -6°C° 0.1 mm 1 mps 601 mmHg 90%
    06:00 -6°C° 0.1 mm 1 mps 602 mmHg 90%
    07:00 -4°C° 0.2 mm 1 mps 603 mmHg 88%
    08:00 -6°C° 0.2 mm 2 mps 604 mmHg 86%
    09:00 -5°C° 0.2 mm 2 mps 605 mmHg 84%
    10:00 -4°C° 0 mm 2 mps 606 mmHg 79%
    11:00 -4°C° 0 mm 2 mps 607 mmHg 74%
    12:00 -3°C° 0 mm 2 mps 607 mmHg 68%
    13:00 -3°C° 0 mm 2 mps 608 mmHg 68%
    14:00 -3°C° 0 mm 2 mps 608 mmHg 68%
    15:00 -4°C° 0 mm 2 mps 608 mmHg 68%
    16:00 -5°C° 0 mm 2 mps 608 mmHg 71%
    17:00 -7°C° 0 mm 2 mps 607 mmHg 74%
    18:00 -9°C° 0 mm 2 mps 607 mmHg 77%
    19:00 -9°C° 0 mm 2 mps 608 mmHg 71%
    20:00 -10°C° 0 mm 2 mps 608 mmHg 64%
    21:00 -10°C° 0 mm 2 mps 608 mmHg 58%
    22:00 -10°C° 0 mm 2 mps 609 mmHg 56%
    23:00 -10°C° 0 mm 2 mps 609 mmHg 53%

    Day after tomorrow, 13 December, Wednesday

    Time Temperature Precipitation Wind Pressure Humidity
    00:00 -10°C° 0 mm 2 mps 609 mmHg 51%
    01:00 -9°C° 0 mm 1 mps 609 mmHg 50%
    02:00 -9°C° 0 mm 1 mps 609 mmHg 49%
    03:00 -8°C° 0 mm 1 mps 609 mmHg 48%
    04:00 -8°C° 0 mm 1 mps 609 mmHg 50%
    05:00 -8°C° 0 mm 1 mps 609 mmHg 51%
    06:00 -8°C° 0 mm 1 mps 609 mmHg 53%
    07:00 -6°C° 0 mm 1 mps 610 mmHg 53%
    08:00 -4°C° 0 mm 1 mps 611 mmHg 52%
    09:00 -2°C° 0 mm 1 mps 612 mmHg 52%
    10:00 0°C° 0 mm 1 mps 612 mmHg 53%
    11:00 +1°C° 0 mm 1 mps 613 mmHg 55%
    12:00 +3°C° 0 mm 1 mps 613 mmHg 56%
    13:00 +3°C° 0 mm 1 mps 612 mmHg 59%
    14:00 +2°C° 0 mm 1 mps 612 mmHg 62%
    15:00 +2°C° 0 mm 1 mps 611 mmHg 65%
    16:00 +1°C° 0 mm 1 mps 611 mmHg 68%
    17:00 -1°C° 0 mm 1 mps 610 mmHg 72%
    18:00 -2°C° 0 mm 1 mps 609 mmHg 75%
    19:00 -1°C° 0.5 mm 1 mps 610 mmHg 76%
    20:00 -1°C° 0.5 mm 1 mps 610 mmHg 78%
    21:00 0°C° 0.5 mm 1 mps 610 mmHg 80%
    22:00 0°C° 0.3 mm 1 mps 610 mmHg 82%
    23:00 0°C° 0.3 mm 1 mps 610 mmHg 83%

    14 December, Thursday

    Time Temperature Precipitation Wind Pressure Humidity
    00:00 0°C° 0.3 mm 1 mps 610 mmHg 85%
    01:00 +1°C° 0.4 mm 1 mps 609 mmHg 86%
    02:00 +1°C° 0.4 mm 1 mps 609 mmHg 87%
    03:00 +1°C° 0.4 mm 1 mps 609 mmHg 88%
    04:00 +1°C° 0.5 mm 1 mps 609 mmHg 89%
    05:00 +1°C° 0.5 mm 1 mps 609 mmHg 90%
    06:00 +2°C° 0.5 mm 1 mps 609 mmHg 92%
    07:00 +2°C° 0.1 mm 1 mps 609 mmHg 90%
    08:00 +3°C° 0.1 mm 1 mps 609 mmHg 89%
    09:00 +3°C° 0.1 mm 1 mps 609 mmHg 88%
    10:00 +4°C° 0.1 mm 1 mps 609 mmHg 86%
    11:00 +5°C° 0.1 mm 1 mps 609 mmHg 84%
    12:00 +5°C° 0.1 mm 1 mps 609 mmHg 82%
    13:00 +5°C° 0.3 mm 1 mps 609 mmHg 84%
    14:00 +5°C° 0.3 mm 1 mps 608 mmHg 86%
    15:00 +4°C° 0.3 mm 1 mps 608 mmHg 88%
    16:00 +4°C° 0.2 mm 1 mps 607 mmHg 89%
    17:00 +3°C° 0.2 mm 1 mps 607 mmHg 91%
    18:00 +2°C° 0.2 mm 1 mps 606 mmHg 92%
    19:00 +2°C° 0.2 mm 1 mps 606 mmHg 92%
    20:00 +2°C° 0.2 mm 1 mps 606 mmHg 92%
    21:00 +2°C° 0.2 mm 1 mps 605 mmHg 92%
    22:00 +2°C° 0.5 mm 1 mps 605 mmHg 94%
    23:00 +2°C° 0.5 mm 1 mps 604 mmHg 95%

    15 December, Friday

    Time Temperature Precipitation Wind Pressure Humidity
    00:00 +1°C° 0.5 mm 2 mps 604 mmHg 96%
    01:00 +1°C° 0.7 mm 2 mps 604 mmHg 96%
    02:00 -1°C° 0.7 mm 2 mps 603 mmHg 96%
    03:00 -1°C° 0.7 mm 2 mps 603 mmHg 96%
    04:00 -1°C° 0.2 mm 2 mps 603 mmHg 96%
    05:00 -1°C° 0.2 mm 2 mps 602 mmHg 95%
    06:00 0°C° 0.2 mm 1 mps 602 mmHg 95%
    07:00 +1°C° 0 mm 1 mps 602 mmHg 93%
    08:00 +1°C° 0 mm 1 mps 602 mmHg 91%
    09:00 +1°C° 0 mm 1 mps 603 mmHg 89%
    10:00 -1°C° 0.5 mm 2 mps 603 mmHg 88%
    11:00 +1°C° 0.5 mm 2 mps 603 mmHg 87%
    12:00 0°C° 0.5 mm 3 mps 603 mmHg 86%
    13:00 -1°C° 0.5 mm 3 mps 603 mmHg 84%
    14:00 -2°C° 0.5 mm 4 mps 603 mmHg 82%
    15:00 -3°C° 0.5 mm 4 mps 602 mmHg 80%
    16:00 -4°C° 0.1 mm 4 mps 602 mmHg 81%
    17:00 -5°C° 0.1 mm 4 mps 602 mmHg 83%
    18:00 -7°C° 0.1 mm 3 mps 602 mmHg 84%
    19:00 -7°C° 0.1 mm 3 mps 602 mmHg 84%
    20:00 -7°C° 0.1 mm 3 mps 603 mmHg 83%
    21:00 -8°C° 0.1 mm 3 mps 603 mmHg 83%
    22:00 -8°C° 0 mm 3 mps 603 mmHg 82%
    23:00 -8°C° 0 mm 3 mps 603 mmHg 82%

    16 December, Saturday

    Time Temperature Precipitation Wind Pressure Humidity
    00:00 -9°C° 0 mm 3 mps 604 mmHg 82%
    01:00 -9°C° 0 mm 3 mps 604 mmHg 81%
    02:00 -9°C° 0 mm 3 mps 604 mmHg 80%
    03:00 -10°C° 0 mm 3 mps 604 mmHg 79%
    04:00 -10°C° 0 mm 3 mps 604 mmHg 79%
    05:00 -10°C° 0 mm 3 mps 604 mmHg 78%
    06:00 -10°C° 0 mm 3 mps 605 mmHg 78%
    07:00 -9°C° 0 mm 3 mps 606 mmHg 76%
    08:00 -8°C° 0 mm 3 mps 606 mmHg 74%
    09:00 -7°C° 0 mm 3 mps 607 mmHg 71%
    10:00 -6°C° 0 mm 3 mps 608 mmHg 67%
    11:00 -5°C° 0 mm 3 mps 608 mmHg 64%
    12:00 -4°C° 0 mm 3 mps 609 mmHg 60%
    13:00 -4°C° 0 mm 3 mps 609 mmHg 61%
    14:00 -4°C° 0 mm 3 mps 609 mmHg 62%
    15:00 -5°C° 0 mm 3 mps 608 mmHg 63%
    16:00 -6°C° 0 mm 3 mps 608 mmHg 67%
    17:00 -6°C° 0 mm 2 mps 608 mmHg 71%
    18:00 -8°C° 0 mm 2 mps 608 mmHg 75%
    19:00 -8°C° 0 mm 2 mps 608 mmHg 74%
    20:00 -8°C° 0 mm 2 mps 609 mmHg 73%
    21:00 -8°C° 0 mm 2 mps 609 mmHg 73%
    22:00 -8°C° 0 mm 2 mps 609 mmHg 73%
    23:00 -8°C° 0 mm 2 mps 609 mmHg 74%
    Show more